Preview of NWS' New Version of Forecast
This preview is not operational and should not be used for support decisions.

Terminal Aerodrome Forecast (TAF)

Issued by National Weather Service (NWS)

                            
000
FTUS42 KKEY 232109 AAA
TAFEYW
TAF AMD
KEYW 232109Z 2321/2418 13005KT P6SM FEW020=